| time (UTC) | temp F | wind direction | speed MPH | gust MPH | rain 1hr in | rain 24hr in | rain mn in | humidity % | barometer mb |
| 20260509020037 | 45 | 0.0 | 0.0 | 0.00 | 0.00 | 0.00 | 75 | 1016.0 | |
| 20260509015017 | 45 | 0.0 | 1.0 | 0.00 | 0.00 | 0.00 | 76 | 1016.0 | |
| 20260509014037 | 45 | 0.0 | 1.0 | 0.00 | 0.00 | 0.00 | 77 | 1016.1 | |
| 20260509013017 | 45 | 0.0 | 1.0 | 0.00 | 0.00 | 0.00 | 76 | 1016.1 | |
| 20260509012018 | 46 | 203 | 1.0 | 3.0 | 0.00 | 0.00 | 0.00 | 75 | 1016.2 |
| 20260509011017 | 46 | 0.0 | 1.0 | 0.00 | 0.00 | 0.00 | 78 | 1016.3 | |
| 20260509010017 | 44 | 23 | 2.0 | 7.0 | 0.00 | 0.00 | 0.00 | 81 | 1016.1 |
| 20260509005017 | 43 | 0.0 | 1.0 | 0.00 | 0.00 | 0.00 | 82 | 1015.9 | |
| 20260509004017 | 42 | 0.0 | 1.0 | 0.00 | 0.00 | 0.00 | 86 | 1015.9 | |
| 20260509003017 | 42 | 0.0 | 0.0 | 0.00 | 0.00 | 0.00 | 88 | 1015.9 | |
| 20260509002017 | 42 | 0.0 | 0.0 | 0.00 | 0.00 | 0.00 | 87 | 1015.9 | |
| 20260509001017 | 42 | 0.0 | 0.0 | 0.00 | 0.00 | 0.00 | 88 | 1015.8 | |
| 20260509000017 | 42 | 0.0 | 0.0 | 0.00 | 0.00 | 0.00 | 87 | 1015.7 | |
| 20260508235016 | 42 | 0.0 | 0.0 | 0.00 | 0.00 | 0.00 | 87 | 1015.7 | |
| 20260508234057 | 42 | 0.0 | 0.0 | 0.00 | 0.00 | 0.00 | 88 | 1015.7 | |
| 20260508233037 | 42 | 0.0 | 0.0 | 0.00 | 0.00 | 0.00 | 87 | 1015.6 | |
| 20260508232017 | 42 | 0.0 | 0.0 | 0.00 | 0.00 | 0.00 | 86 | 1015.6 | |
| 20260508231017 | 42 | 0.0 | 0.0 | 0.00 | 0.00 | 0.00 | 86 | 1015.6 | |
| 20260508230017 | 42 | 0.0 | 0.0 | 0.00 | 0.00 | 0.00 | 86 | 1015.6 | |
| 20260508225017 | 42 | 0.0 | 0.0 | 0.00 | 0.00 | 0.00 | 85 | 1015.6 | |
| 20260508224037 | 42 | 0.0 | 0.0 | 0.00 | 0.00 | 0.00 | 84 | 1015.7 | |
| 20260508223016 | 43 | 0.0 | 0.0 | 0.00 | 0.00 | 0.00 | 83 | 1015.8 | |
| 20260508222016 | 43 | 0.0 | 1.0 | 0.00 | 0.00 | 0.00 | 84 | 1015.8 | |
| 20260508221016 | 42 | 0.0 | 1.0 | 0.00 | 0.00 | 0.00 | 85 | 1015.9 | |
| 20260508220016 | 42 | 0.0 | 0.0 | 0.00 | 0.00 | 0.00 | 84 | 1015.9 | |
| 20260508215017 | 43 | 0.0 | 1.0 | 0.00 | 0.00 | 0.00 | 83 | 1015.8 | |
| 20260508214017 | 43 | 0.0 | 0.0 | 0.00 | 0.00 | 0.00 | 82 | 1015.8 | |
| 20260508213017 | 43 | 293 | 1.0 | 2.0 | 0.00 | 0.00 | 0.00 | 82 | 1015.7 |
| 20260508212017 | 43 | 0.0 | 0.0 | 0.00 | 0.00 | 0.00 | 81 | 1015.8 | |
| 20260508211017 | 43 | 0.0 | 1.0 | 0.00 | 0.00 | 0.00 | 81 | 1015.7 | |
| 20260508210017 | 43 | 0.0 | 0.0 | 0.00 | 0.00 | 0.00 | 81 | 1015.7 | |
| 20260508205017 | 44 | 0.0 | 0.0 | 0.00 | 0.00 | 0.00 | 81 | 1015.6 | |
| 20260508204017 | 44 | 0.0 | 0.0 | 0.00 | 0.00 | 0.00 | 80 | 1015.6 | |
| 20260508203017 | 45 | 0.0 | 0.0 | 0.00 | 0.00 | 0.00 | 80 | 1015.6 | |
| 20260508202017 | 45 | 0.0 | 0.0 | 0.00 | 0.00 | 0.00 | 80 | 1015.6 | |
| 20260508201017 | 45 | 0.0 | 0.0 | 0.00 | 0.00 | 0.00 | 79 | 1015.6 | |
| 20260508200057 | 46 | 0.0 | 0.0 | 0.00 | 0.00 | 0.00 | 78 | 1015.6 | |
| 20260508195017 | 47 | 0.0 | 0.0 | 0.00 | 0.00 | 0.00 | 78 | 1015.4 | |
| 20260508194017 | 47 | 0.0 | 0.0 | 0.00 | 0.00 | 0.00 | 76 | 1015.4 | |
| 20260508193017 | 47 | 0.0 | 0.0 | 0.00 | 0.00 | 0.00 | 76 | 1015.3 | |
| 20260508192017 | 48 | 0.0 | 0.0 | 0.00 | 0.00 | 0.00 | 75 | 1015.4 | |
| 20260508191017 | 48 | 0.0 | 0.0 | 0.00 | 0.00 | 0.00 | 72 | 1015.3 | |
| 20260508190016 | 49 | 0.0 | 0.0 | 0.00 | 0.00 | 0.00 | 70 | 1015.3 | |
| 20260508185017 | 51 | 0.0 | 0.0 | 0.00 | 0.00 | 0.00 | 63 | 1015.4 | |
| 20260508184037 | 51 | 0.0 | 0.0 | 0.00 | 0.00 | 0.00 | 64 | 1015.4 | |
| 20260508183016 | 51 | 0.0 | 0.0 | 0.00 | 0.00 | 0.00 | 63 | 1015.3 | |
| 20260508182017 | 52 | 0.0 | 1.0 | 0.00 | 0.00 | 0.00 | 60 | 1015.3 | |
| 20260508181016 | 53 | 0.0 | 0.0 | 0.00 | 0.00 | 0.00 | 58 | 1015.3 | |
| 20260508180017 | 54 | 0.0 | 0.0 | 0.00 | 0.00 | 0.00 | 58 | 1015.4 | |
| 20260508175016 | 54 | 0.0 | 0.0 | 0.00 | 0.00 | 0.00 | 55 | 1015.3 | |
| 20260508174017 | 55 | 0.0 | 0.0 | 0.00 | 0.00 | 0.00 | 54 | 1015.3 | |
| 20260508173017 | 56 | 0.0 | 0.0 | 0.00 | 0.00 | 0.00 | 54 | 1015.4 | |
| 20260508172016 | 56 | 0.0 | 1.0 | 0.00 | 0.00 | 0.00 | 51 | 1015.4 | |
| 20260508171017 | 57 | 90 | 1.0 | 2.0 | 0.00 | 0.00 | 0.00 | 51 | 1015.5 |
| 20260508170017 | 58 | 68 | 1.0 | 3.0 | 0.00 | 0.00 | 0.00 | 49 | 1015.4 |
| 20260508165016 | 59 | 293 | 1.0 | 3.0 | 0.00 | 0.00 | 0.00 | 40 | 1015.5 |
| 20260508164016 | 58 | 293 | 2.0 | 5.0 | 0.00 | 0.00 | 0.00 | 40 | 1015.5 |
| 20260508163016 | 58 | 113 | 1.0 | 2.0 | 0.00 | 0.00 | 0.00 | 46 | 1015.5 |
| 20260508162017 | 58 | 45 | 1.0 | 4.0 | 0.00 | 0.00 | 0.00 | 48 | 1015.6 |
| 20260508161036 | 59 | 0.0 | 2.0 | 0.00 | 0.00 | 0.00 | 47 | 1015.6 | |
| 20260508160016 | 59 | 45 | 1.0 | 3.0 | 0.00 | 0.00 | 0.00 | 45 | 1015.6 |
| 20260508155016 | 60 | 0 | 1.0 | 3.0 | 0.00 | 0.00 | 0.00 | 41 | 1015.5 |
| 20260508154016 | 59 | 135 | 1.0 | 4.0 | 0.00 | 0.00 | 0.00 | 47 | 1015.5 |
| 20260508153036 | 60 | 90 | 2.0 | 5.0 | 0.00 | 0.00 | 0.00 | 44 | 1015.5 |
| 20260508152016 | 62 | 248 | 1.0 | 3.0 | 0.00 | 0.00 | 0.00 | 37 | 1015.6 |
| 20260508151036 | 62 | 248 | 1.0 | 4.0 | 0.00 | 0.00 | 0.00 | 35 | 1015.5 |
| 20260508150016 | 61 | 158 | 2.0 | 4.0 | 0.00 | 0.00 | 0.00 | 36 | 1015.7 |
| 20260508145016 | 61 | 248 | 3.0 | 6.0 | 0.00 | 0.00 | 0.00 | 36 | 1015.8 |
| 20260508144017 | 61 | 248 | 3.0 | 7.0 | 0.00 | 0.00 | 0.00 | 35 | 1015.8 |
| 20260508143016 | 61 | 135 | 4.0 | 8.0 | 0.00 | 0.00 | 0.00 | 36 | 1015.8 |
| 20260508142016 | 61 | 135 | 2.0 | 5.0 | 0.00 | 0.00 | 0.00 | 38 | 1015.9 |
| 20260508141056 | 60 | 158 | 4.0 | 8.0 | 0.00 | 0.00 | 0.00 | 38 | 1016.0 |
| 20260508140016 | 59 | 135 | 3.0 | 6.0 | 0.00 | 0.00 | 0.00 | 44 | 1016.1 |
| 20260508135016 | 59 | 135 | 1.0 | 6.0 | 0.00 | 0.00 | 0.00 | 40 | 1016.3 |
| 20260508134016 | 59 | 113 | 2.0 | 6.0 | 0.00 | 0.00 | 0.00 | 42 | 1016.5 |
| 20260508133036 | 58 | 135 | 3.0 | 9.0 | 0.00 | 0.00 | 0.00 | 44 | 1016.6 |
| 20260508132016 | 57 | 135 | 3.0 | 7.0 | 0.00 | 0.00 | 0.00 | 44 | 1016.7 |
| 20260508131017 | 56 | 135 | 4.0 | 9.0 | 0.00 | 0.00 | 0.00 | 46 | 1016.8 |
| 20260508130016 | 55 | 135 | 5.0 | 8.0 | 0.00 | 0.00 | 0.00 | 47 | 1017.0 |
| 20260508125036 | 55 | 135 | 4.0 | 11.0 | 0.00 | 0.00 | 0.00 | 48 | 1017.0 |
| 20260508124016 | 55 | 90 | 4.0 | 8.0 | 0.00 | 0.00 | 0.00 | 47 | 1017.0 |
| 20260508123016 | 55 | 135 | 5.0 | 9.0 | 0.00 | 0.00 | 0.00 | 47 | 1017.1 |
| 20260508122016 | 54 | 135 | 5.0 | 11.0 | 0.00 | 0.00 | 0.00 | 48 | 1017.0 |
| 20260508121016 | 54 | 135 | 6.0 | 11.0 | 0.00 | 0.00 | 0.00 | 47 | 1017.1 |
| 20260508120036 | 54 | 135 | 4.0 | 11.0 | 0.00 | 0.00 | 0.00 | 49 | 1017.2 |
| 20260508115036 | 54 | 135 | 5.0 | 9.0 | 0.00 | 0.00 | 0.00 | 48 | 1017.4 |
| 20260508114016 | 54 | 113 | 5.0 | 10.0 | 0.00 | 0.00 | 0.00 | 49 | 1017.5 |
| 20260508113016 | 54 | 135 | 4.0 | 7.0 | 0.00 | 0.00 | 0.00 | 50 | 1017.5 |
| 20260508112016 | 53 | 135 | 6.0 | 12.0 | 0.00 | 0.00 | 0.00 | 51 | 1017.6 |
| 20260508111016 | 53 | 135 | 5.0 | 9.0 | 0.00 | 0.00 | 0.00 | 50 | 1017.6 |
| 20260508110016 | 52 | 135 | 5.0 | 9.0 | 0.00 | 0.00 | 0.00 | 49 | 1017.7 |
| 20260508105036 | 52 | 113 | 5.0 | 9.0 | 0.00 | 0.00 | 0.00 | 49 | 1017.7 |
| 20260508104016 | 52 | 135 | 5.0 | 10.0 | 0.00 | 0.00 | 0.00 | 48 | 1017.8 |
| 20260508103016 | 53 | 135 | 3.0 | 7.0 | 0.00 | 0.00 | 0.00 | 48 | 1017.8 |
| 20260508102036 | 54 | 158 | 3.0 | 11.0 | 0.00 | 0.00 | 0.00 | 48 | 1017.9 |
| 20260508101016 | 52 | 135 | 4.0 | 7.0 | 0.00 | 0.00 | 0.00 | 50 | 1017.9 |
| 20260508100016 | 51 | 135 | 6.0 | 11.0 | 0.00 | 0.00 | 0.00 | 50 | 1018.0 |
| 20260508095016 | 51 | 135 | 5.0 | 12.0 | 0.00 | 0.00 | 0.00 | 50 | 1018.1 |
| 20260508094036 | 51 | 135 | 5.0 | 11.0 | 0.00 | 0.00 | 0.00 | 50 | 1018.1 |
| 20260508093056 | 50 | 135 | 6.0 | 11.0 | 0.00 | 0.00 | 0.00 | 51 | 1018.3 |
| 20260508092056 | 50 | 135 | 4.0 | 8.0 | 0.00 | 0.00 | 0.00 | 52 | 1018.3 |
| 20260508091015 | 50 | 135 | 5.0 | 9.0 | 0.00 | 0.00 | 0.00 | 52 | 1018.3 |
| 20260508090016 | 50 | 135 | 7.0 | 13.0 | 0.00 | 0.00 | 0.00 | 51 | 1018.4 |
| 20260508085015 | 50 | 113 | 2.0 | 4.0 | 0.00 | 0.00 | 0.00 | 55 | 1018.5 |
| 20260508084036 | 50 | 135 | 5.0 | 9.0 | 0.00 | 0.00 | 0.00 | 53 | 1018.5 |
| 20260508083015 | 50 | 113 | 3.0 | 8.0 | 0.00 | 0.00 | 0.00 | 53 | 1018.5 |
| 20260508082016 | 49 | 135 | 4.0 | 7.0 | 0.00 | 0.00 | 0.00 | 55 | 1018.5 |
| 20260508081016 | 49 | 135 | 4.0 | 10.0 | 0.00 | 0.00 | 0.00 | 54 | 1018.6 |
| 20260508080016 | 49 | 135 | 3.0 | 7.0 | 0.00 | 0.00 | 0.00 | 55 | 1018.7 |
| 20260508075016 | 48 | 90 | 2.0 | 5.0 | 0.00 | 0.00 | 0.00 | 57 | 1018.8 |
| 20260508074036 | 48 | 90 | 3.0 | 6.0 | 0.00 | 0.00 | 0.00 | 60 | 1018.9 |
| 20260508073015 | 48 | 90 | 2.0 | 5.0 | 0.00 | 0.00 | 0.00 | 62 | 1018.9 |
| 20260508072015 | 47 | 90 | 4.0 | 10.0 | 0.00 | 0.00 | 0.00 | 62 | 1019.0 |
| 20260508071036 | 47 | 90 | 3.0 | 8.0 | 0.00 | 0.00 | 0.00 | 64 | 1019.0 |
| 20260508070016 | 47 | 90 | 3.0 | 6.0 | 0.00 | 0.00 | 0.00 | 66 | 1019.1 |
| 20260508065015 | 46 | 90 | 3.0 | 5.0 | 0.00 | 0.00 | 0.00 | 66 | 1019.0 |
| 20260508064057 | 46 | 68 | 2.0 | 6.0 | 0.00 | 0.00 | 0.00 | 67 | 1019.2 |
| 20260508063015 | 45 | 90 | 5.0 | 10.0 | 0.00 | 0.00 | 0.00 | 68 | 1019.2 |
| 20260508062015 | 45 | 90 | 3.0 | 7.0 | 0.00 | 0.00 | 0.00 | 70 | 1019.1 |
| 20260508061015 | 44 | 90 | 4.0 | 7.0 | 0.00 | 0.00 | 0.00 | 72 | 1019.2 |
| 20260508060035 | 43 | 90 | 5.0 | 9.0 | 0.00 | 0.00 | 0.00 | 74 | 1019.2 |
| 20260508055036 | 43 | 90 | 4.0 | 7.0 | 0.00 | 0.00 | 0.00 | 74 | 1019.2 |
| 20260508054036 | 43 | 90 | 3.0 | 6.0 | 0.00 | 0.00 | 0.00 | 77 | 1019.2 |
| 20260508053058 | 42 | 90 | 3.0 | 6.0 | 0.00 | 0.00 | 0.00 | 80 | 1019.4 |
| 20260508052017 | 41 | 90 | 4.0 | 7.0 | 0.00 | 0.00 | 0.00 | 87 | 1019.5 |
| 20260508051017 | 40 | 90 | 3.0 | 5.0 | 0.00 | 0.00 | 0.00 | 91 | 1019.4 |
| 20260508050017 | 40 | 90 | 1.0 | 3.0 | 0.00 | 0.00 | 0.00 | 92 | 1019.4 |
| 20260508045017 | 40 | 0.0 | 0.0 | 0.00 | 0.00 | 0.00 | 94 | 1019.4 | |
| 20260508044017 | 39 | 0.0 | 0.0 | 0.00 | 0.00 | 0.00 | 94 | 1019.5 | |
| 20260508043017 | 38 | 0.0 | 0.0 | 0.00 | 0.00 | 0.00 | 94 | 1019.4 | |
| 20260508042017 | 37 | 0.0 | 1.0 | 0.00 | 0.00 | 0.00 | 95 | 1019.4 | |
| 20260508041037 | 37 | 0.0 | 0.0 | 0.00 | 0.00 | 0.00 | 94 | 1019.5 | |
| 20260508040017 | 36 | 0.0 | 0.0 | 0.00 | 0.00 | 0.00 | 95 | 1019.6 | |
| 20260508035017 | 34 | 0.0 | 0.0 | 0.00 | 0.00 | 0.00 | 97 | 1019.7 | |
| 20260508034017 | 32 | 0.0 | 0.0 | 0.00 | 0.00 | 0.00 | 97 | 1019.8 | |
| 20260508033017 | 32 | 0.0 | 0.0 | 0.00 | 0.00 | 0.00 | 98 | 1019.7 | |
| 20260508032037 | 31 | 0.0 | 0.0 | 0.00 | 0.00 | 0.00 | 97 | 1019.7 | |
| 20260508031017 | 31 | 0.0 | 0.0 | 0.00 | 0.00 | 0.00 | 97 | 1019.8 | |
| 20260508030017 | 31 | 0.0 | 1.0 | 0.00 | 0.00 | 0.00 | 97 | 1019.8 | |
| 20260508025017 | 31 | 0.0 | 0.0 | 0.00 | 0.00 | 0.00 | 97 | 1019.8 | |
| 20260508024017 | 31 | 0.0 | 0.0 | 0.00 | 0.00 | 0.00 | 97 | 1019.8 | |
| 20260508023017 | 31 | 0.0 | 1.0 | 0.00 | 0.00 | 0.00 | 98 | 1019.7 | |
| 20260508022017 | 31 | 0.0 | 1.0 | 0.00 | 0.00 | 0.00 | 97 | 1019.8 | |
| 20260508021037 | 31 | 0.0 | 0.0 | 0.00 | 0.00 | 0.00 | 97 | 1019.7 |